カタログに戻る

STARLINK-5981

運用中通信SSO
NORAD 56325·PAYLOAD·🇺🇸 United States

打ち上げ Apr 27, 2023 から Vandenberg Space Force Base

Loading…

次のパス (今後24時間)

TLE

最新Source: CelesTrak SupGP

元期: Sep 15, 2026, 02:59 UTC

1 56325C 23058J   26258.12479167  .00506260  00000+0  30657-1 0  2587
2 56325  97.2849 252.2084 0001672  92.7670  63.3859 15.10436432    16

AllMySatでSTARLINK-5981をリアルタイム追跡

Download on the App Store